AirNav   Pilot Hours Calculator
 
 1321 users online  

9PN2 Childrens Hospital of Philadelphia Heliport
Philadelphia, Pennsylvania, USA

GOING TO PHILADELPHIA?


FAA INFORMATION EFFECTIVE 17 JUNE 2021

Location

FAA Identifier: 9PN2
Lat/Long: 39-56-53.8800N 075-11-37.9900W
39-56.898000N 075-11.633167W
39.9483000,-75.1938861
(estimated)
Elevation: 203 ft. / 62 m (estimated)
Time zone: UTC -4 (UTC -5 during Standard Time)
Zip code: 19146

Heliport Operations

Heliport use: Private use, MEDICAL.
Activation date: 01/2007
Control tower: no
ARTCC: NEW YORK CENTER
FSS: WILLIAMSPORT FLIGHT SERVICE STATION
Attendance: UNATNDD
Wind indicator: lighted
Segmented circle: no
Lights: PERIMETER LGTS CALL 215-590-1000.

Heliport Communications

WX ASOS at PHL (5 nm SW): PHONE 215-492-9617
WX ASOS at PNE (12 nm NE): 121.15 (215-677-0146)
WX AWOS-3 at LOM (12 nm N): 118.925 (215-646-1068)
WX ASOS at VAY (16 nm E): 119.325 (609-267-1176)
WX AWOS-3T at OQN (18 nm W): 121.4 ((610) 692-6190)

Nearby radio navigation aids

VOR radial/distance  VOR name  Freq  Var
OODr025/19.4WOODSTOWN VORTAC112.8010W
MXEr094/22.0MODENA VORTAC113.2009W
ARDr226/22.5YARDLEY VOR/DME108.2010W
PTWr143/23.5POTTSTOWN VORTAC116.5009W
DQOr060/25.0DUPONT VORTAC114.0010W
VCNr347/26.8CEDAR LAKE VOR/DME115.2010W
GXUr274/27.7MC GUIRE VORTAC110.6012W
RBVr255/35.5ROBBINSVILLE VORTAC113.8010W
CYNr293/36.0COYLE VORTAC113.4010W

 
NDB name  Hdg/Dist  Freq  Var  ID
AMBLER171/11.527512WING .. -. --.
RAINBOW006/31.936311WRNB .-. -. -...
LAKEHURST273/39.939611WNEL -. . .-..

Heliport Services

Runway Information

Helipad H2

Dimensions: 50 x 50 ft. / 15 x 15 m
Surface: asphalt/concrete
Latitude: 39-56.924500N
Longitude: 075-11.644667W
Traffic pattern: leftleft

Helipad H1

Dimensions: 52 x 50 ft. / 16 x 15 m
Surface: mats
ROOFTOP.
Runway edge lights: PERI
Operational restrictions: MAXIMUM GROSS WEIGHT 16,000 LBS.
Latitude: 39-56.893333N
Longitude: 075-11.648333W
Elevation: 203.0 ft.
Traffic pattern: leftleft

Heliport Ownership and Management from official FAA records

Ownership: Privately-owned
Owner: CHILDRENS HOSPITAL OF PHILADELPHIA
34TH ST & CIVIC CENTER BLVD
PHILADELPHIA, PA 19104
Phone 215-590-1000
Manager: MARK BRICKER
CHILDRENS HOSPITAL OF PHILADELPHIA, 34TH ST & CIVIC CENTER BLVD
PHILADELPHIA, PA 19104
Phone 215-590-1047
OTR CTC ROBERT MURRAY 267-426-9288; MURRAYR3@EMAIL.CHOP.EDU.

Additional Remarks

FOR CD CTC PHILADELPHIA APCH AT 800-354-9884.
H2 CLSD.

Instrument Procedures

There are no published instrument procedures at 9PN2.

Some nearby airports with instrument procedures:

KPHL - Philadelphia International Airport (5 nm SW)
KPNE - Northeast Philadelphia Airport (12 nm NE)
KLOM - Wings Field Airport (12 nm N)
19N - Camden County Airport (15 nm SE)
7N7 - Spitfire Aerodrome (16 nm SW)
KVAY - South Jersey Regional Airport (16 nm E)
17N - Cross Keys Airport (16 nm SE)
N14 - Flying W Airport (18 nm E)
KOQN - Brandywine Regional Airport (18 nm W)
N10 - Perkiomen Valley Airport (19 nm NW)
 
Loc | Ops | Rwys | IFR | FBO | Links
Com | Nav | Svcs | Stats | Notes
Area around 9PN2 (Childrens Hospital of Philadelphia Heliport)
 
Road maps at: MapQuest Bing Google
 
Aerial photo
No photo
 
Sectional chart

 
Airport distance calculator
Flying to Childrens Hospital of Philadelphia Heliport? Find the distance to fly.

From to 9PN2

Sunrise and sunset
Times for 17-Jun-2021
 Local
(UTC-4)
 Zulu
(UTC)
Morning civil twilight05:0009:00
Sunrise05:3309:33
Sunset20:3100:31
Evening civil twilight21:0401:04

Current date and time
Zulu (UTC)  18-Jun-2021 00:01:59
Local (UTC-4)  17-Jun-2021 20:01:59
 
METAR
KPHL 
5nm S 
172354Z 32008KT 10SM FEW250 24/06 A3000 RMK AO2 SLP159 T02440056 10256 20239 53006
KPNE 
11nm NE 
172354Z 29006KT 10SM CLR 23/04 A3001 RMK AO2 SLP160 T02280044 10256 20228 53005
KLOM 
12nm N 
172355Z AUTO 28003KT 10SM CLR 22/08 A3001 RMK AO2 T02190078 10251 20211 402510094
KVAY 
17nm E 
ASOS 119.325 609-267-1176
172354Z AUTO 29003KT 10SM CLR 24/04 A2999 RMK AO2 SLP155 T02440044 10261 20239 53006
KOQN 
18nm W 
172355Z AUTO 00000KT 10SM CLR 23/03 A3002 RMK AO2
TAF
KPHL 
5nm S 
172057Z 1721/1824 31008KT P6SM FEW250 FM180000 VRB04KT P6SM SKC FM181500 23009KT P6SM SCT150 FM182100 19008KT P6SM SCT090
KPNE 
11nm NE 
171724Z 1718/1818 32010KT P6SM SKC FM172300 VRB04KT P6SM SKC FM181500 23007KT P6SM FEW200
NOTAMs
Click for the latest NOTAMs
NOTAMs are issued by the DoD/FAA and will open in a separate window not controlled by AirNav.

 

 
 

Would you like to see your business listed on this page?

 If your business provides an interesting product or service to pilots, flight crews, aircraft, or users of the Childrens Hospital of Philadelphia Heliport, you should consider listing it here.  To start the listing process, click on the button below
 
Add a business
 

Other Pages about Childrens Hospital of Philadelphia Heliport

Update a link
 
Copyright © AirNav, LLC. All rights reserved. Privacy Policy  Contact